Regional Weather Roundup
Issued by NWS

Home | Current Version | Previous Version | Graphics & Text | Print | Product List | Glossary On
Versions: 1 2 3 4 5 6 7 8 9 10 11 12 13 14 15 16 17 18 19 20 21 22 23 24 25 26 27 28 29 30 31 32 33 34 35 36 37 38 39 40 41 42 43 44 45 46 47 48 49 50
000
ASUS45 KABQ 021201
RWRNM
NEW MEXICO REGIONAL WEATHER ROUNDUP
NATIONAL WEATHER SERVICE ALBUQUERQUE NM
600 AM MDT MON MAY 02 2016

NOTE: "FAIR" MEANS FEW OR NO CLOUDS BELOW 12,000 FEET AGL WITH NO
       SIGNIFICANT WEATHER OR OBSTRUCTIONS TO VISION.

      THIS PRODUCT IS RELEASED AS TWO VERSIONS.  ONE VERSION NEAR
      THE TOP OF THE HOUR CONTAINING PRELIMINARY DATA FROM ALBUQUERQUE
      AND OTHER STATIONS.  A FINAL VERSION WITH ADDITIONAL DATA IS
      ISSUED ABOUT 10 MINUTES AFTER THE HOUR.

NMZ501-503-504-510>518-021300-
NORTHWEST PLATEAU/NORTHCENTRAL MOUNTAINS

CITY           SKY/WX    TMP DP  RH WIND       PRES   REMARKS
FARMINGTON     FAIR      37  33  85 E9        30.22S WCI  30
6HR MIN TEMP:  36; 6HR MAX TEMP:  44;

SANTA FE       CLOUDY    35  30  82 S8        30.27S WCI  29
6HR MIN TEMP:  35; 6HR MAX TEMP:  37;

TAOS           CLOUDY    32  25  74 NW3       30.27S
ANGEL FIRE     MOCLDY    25  23  92 N6        30.25S WCI  18

$$
NMZ402-403-502-505>509-021300-
WESTCENTRAL MOUNTAINS/SOUTHWEST MOUNTAINS

CITY           SKY/WX    TMP DP  RH WIND       PRES   REMARKS
GALLUP         FAIR      32  29  88 NE3       30.22R
6HR MIN TEMP:  31; 6HR MAX TEMP:  35;

GRANTS         CLOUDY    36  35  96 SE9       30.25S WCI  29
SILVER CITY      N/A     36  30  80 CALM      30.22R

$$
NMZ407-409-411-412-021300-
SOUTHERN DESERTS

CITY           SKY/WX    TMP DP  RH WIND       PRES   REMARKS
LORDSBURG      FAIR      41  32  70 SE13      30.18R
DEMING         FAIR      41  33  73 E9        30.21R
6HR MIN TEMP:  41; 6HR MAX TEMP:  48;

HOLLOMAN AFB   FAIR      42  32  67 S10       30.21R
ALAMOGORDO     FAIR      37  28  70 SE5       30.23R WCI  34
T OR C         LGT RAIN  41  31  67 NE12      30.22R
6HR MIN TEMP:  41; 6HR MAX TEMP:  44; 6HR PCP: TRACE;


$$
NMZ519>523-021300-
CENTRAL VALLEYS/CENTRAL HIGHLANDS

CITY           SKY/WX    TMP DP  RH WIND       PRES   REMARKS
ALBUQUERQUE    FAIR      39  30  70 E13       30.26S WCI  31
6HR MIN TEMP:  38; 6HR MAX TEMP:  41;

DOUBLE EAGLE   MOCLDY    36  30  80 SE8       30.27S WCI  29
MORIARTY ARPT  CLOUDY    34  30  83 S6        30.30R WCI  29
6HR MIN TEMP:  34; 6HR MAX TEMP:  36;

CLINES CORNERS FAIR      27  25  92 CALM      30.25R
6HR MIN TEMP:  27; 6HR MAX TEMP:  31; 6HR PCP:  0.01;

BELEN          CLOUDY    37  35  91 NW5       30.26S WCI  34
6HR MIN TEMP:  37; 6HR MAX TEMP:  40;

SOCORRO        NOT AVBL

$$
NMZ524>526-539-540-021300-
SOUTHCENTRAL MOUNTAINS

CITY           SKY/WX    TMP DP  RH WIND       PRES   REMARKS
RUIDOSO        NOT AVBL

$$
NMZ527>531-021300-
NORTHEAST HIGHLANDS/NORTHEAST PLAINS

CITY           SKY/WX    TMP DP  RH WIND       PRES   REMARKS
LAS VEGAS      CLOUDY    30  27  88 CALM      30.26F
6HR MIN TEMP:  29; 6HR MAX TEMP:  31;

RATON          FAIR      25  22  88 CALM      30.25S
6HR MIN TEMP:  24; 6HR MAX TEMP:  30;

CLAYTON        FAIR      31  27  85 W10       30.25R WCI  22
6HR MIN TEMP:  30; 6HR MAX TEMP:  35;


$$
NMZ532>537-021300-
EASTCENTRAL PLAINS

CITY           SKY/WX    TMP DP  RH WIND       PRES   REMARKS
TUCUMCARI      FAIR      33  31  92 W7        30.27R WCI  27
6HR MIN TEMP:  33; 6HR MAX TEMP:  37;

CANNON AFB     FAIR      37  37  99 N9        30.27R WCI  30
6HR MIN TEMP:  37; 6HR MAX TEMP:  40;

CLOVIS AIRPORT FAIR      36  30  80 NW8       30.27R WCI  29

$$
NMZ028-029-538-021300-
SOUTHEAST PLAINS

CITY           SKY/WX    TMP DP  RH WIND       PRES   REMARKS
ROSWELL        CLOUDY    44  35  70 N8        30.28R
6HR MIN TEMP:  44; 6HR MAX TEMP:  46;

ARTESIA        CLOUDY    43  34  70 NW5       30.29R
CARLSBAD       FAIR      42  33  70 N6        30.27R
6HR MIN TEMP:  42; 6HR MAX TEMP:  48;

HOBBS          PTCLDY    37  37 100 N6        30.27R WCI  33


$$




USA.gov is the U.S. government's official web portal to all federal, state and local government web resources and services.